{"data":{"norad_id":44520,"epoch":"2026-09-20T04:22:45.772608Z","epoch_age_seconds":89034,"freshness":"FRESH","line1":"1 44520U 19058B   26263.18247422  .00001071  00000+0  98513-4 0  9995","line2":"2 44520  97.7779 275.9594 0011037  34.6881 325.5058 14.96852095384244","mean_motion":14.96852095,"eccentricity":0.0011037,"inclination_deg":97.7779,"raan_deg":275.9594,"arg_perigee_deg":34.6881,"mean_anomaly_deg":325.5058,"bstar":9.8513e-5,"rev_number":38424,"period_min":96.201889606201,"perigee_km":568.9539739226,"apogee_km":584.30592648848,"semimajor_km":6954.7669502055,"source":"CELESTRAK","updated_at":"2026-09-20T09:00:14.531735Z"}}